Tracking 19817 objects as of 19-Aug-2019
HD Live streaming from Space Station
objects crossing your sky now

COSMOS 2251 DEB

Track COSMOS 2251 DEB now!
10-day predictions


NORAD ID: 35776
Int'l Code: 1993-036ARW
Perigee: 551.9 km
Apogee: 1,023.4 km
Inclination: 74.0 °
Period: 100.5 minutes
Semi major axis: 7158 km
RCS: 0.0091 m2 (small)
Launch date: June 16, 1993
Source: Commonwealth of Independent States (former USSR) (CIS)
Launch site: PLESETSK MISSILE AND SPACE COMPLEX (PKMTR)

Note: This is SATELLITE DEBRIS
aabbcc
Your satellite tracking list
Your tracking list is empty




NASA's NSSDC Master Catalog

Two Line Element Set (TLE):
1 35776U 93036ARW 19230.71812285 +.00001711 +00000-0 +34425-3 0  9999
2 35776 074.0091 003.6673 0329281 203.5427 155.0363 14.33365493280996
Source of the keplerian elements: AFSPC